Terminal Aerodrome Forecast
Issued by NWS Missoula, MT

Home | Current Version | Previous Version | Text Only | Print | Product List | Glossary On
Versions: 1 2 3 4 5 6 7 8 9 10 11 12 13
000
FTUS45 KMSO 012326
TAFBTM
TAF
KBTM 012326Z 0200/0224 30015KT P6SM SCT080
     FM020300 28008KT P6SM SCT100
     FM020900 32005KT P6SM SCT020 BKN100=

USA.gov is the U.S. government's official web portal to all federal, state and local government web resources and services.